period_start,C,m1,H,J0,J1,J2,J3,J4,J5,JA,JB,JC,JD,JJ,JK,JN,#
2015-11-01 00:03:56,0.04,1.10,0.00,20.82,26.50,30.44,14.60,45.93,1007.34,2037.01,3157.81,2937.03,3194.31,600.09,594.98,24.95,0000 0000 0000 0000 000000
2015-11-01 00:08:58,0.03,1.10,0.00,20.82,26.50,30.45,14.55,45.92,1007.34,2037.02,3157.03,2936.68,3193.98,599.88,595.01,25.00,0000 0000 0000 0000 000000
2015-11-01 00:13:59,0.04,1.10,0.00,20.84,26.50,30.43,14.57,45.75,1007.34,2037.02,3156.46,2936.04,3193.25,599.70,594.63,25.05,0000 0000 0000 0000 000000
2015-11-01 00:19:00,-0.00,1.10,0.00,20.84,26.50,30.44,14.54,45.80,1007.34,2037.00,3156.35,2935.93,3192.98,599.97,594.89,25.10,0000 0000 0000 0000 000000
2015-11-01 00:24:02,0.04,1.10,0.00,20.84,26.49,30.48,14.70,46.54,1007.34,2037.01,3155.98,2935.23,3192.22,600.52,595.47,25.15,0000 0000 0000 0000 000000
2015-11-01 00:29:03,0.02,1.10,0.00,20.84,26.48,30.43,14.57,46.17,1007.33,2037.00,3155.18,2934.99,3191.99,599.41,594.55,25.20,0000 0000 0000 0000 000000
2015-11-01 00:34:05,0.05,1.11,0.00,20.84,26.47,30.44,14.63,46.14,1007.32,2037.02,3154.26,2934.40,3191.43,599.87,594.71,25.25,0000 0000 0000 0000 000000
2015-11-01 00:39:06,0.01,1.11,0.00,20.85,26.47,30.44,14.63,46.13,1007.15,2037.01,3153.70,2934.00,3190.99,600.41,595.12,25.30,0000 0000 0000 0000 000000
2015-11-01 00:44:07,0.05,1.11,0.00,20.85,26.47,30.46,14.54,46.10,1006.97,2037.02,3152.92,2933.45,3190.30,599.77,594.56,25.35,0000 0000 0000 0000 000000
2015-11-01 00:49:08,0.02,1.11,0.00,20.85,26.47,30.43,14.66,46.21,1006.89,2037.04,3152.08,2933.00,3189.98,600.46,595.02,25.40,0000 0000 0000 0000 000000
2015-11-01 00:54:10,0.05,1.11,0.00,20.85,26.48,30.41,14.58,46.11,1006.88,2037.03,3151.51,2932.51,3189.25,599.96,594.67,25.45,0000 0000 0000 0000 000000
2015-11-01 00:59:11,0.06,1.12,0.00,20.86,26.49,30.46,14.61,46.15,1006.86,2037.28,3150.39,2932.01,3188.97,599.95,594.55,25.50,0000 0000 0000 0000 000000
2015-11-01 01:04:12,0.02,1.12,0.00,20.87,26.49,30.45,14.58,46.23,1006.86,2037.35,3150.09,2931.67,3188.30,600.40,594.98,25.55,0000 0000 0000 0000 000000
2015-11-01 01:09:13,0.03,1.12,0.00,20.87,26.50,30.46,14.55,46.30,1006.85,2037.26,3149.10,2931.00,3187.82,599.48,594.29,25.60,0000 0000 0000 0000 000000
2015-11-01 01:14:15,0.06,1.12,0.00,20.87,26.50,30.38,14.64,46.08,1006.85,2037.27,3148.39,2930.46,3187.07,600.59,595.14,25.66,0000 0000 0000 0000 000000
2015-11-01 01:19:16,-0.01,1.12,0.00,20.89,26.50,30.40,14.61,45.93,1006.85,2037.21,3148.14,2930.01,3186.83,599.60,594.03,25.71,0000 0000 0000 0000 000000
2015-11-01 01:24:17,0.02,1.12,0.00,20.91,26.50,30.43,14.54,45.87,1006.85,2037.04,3148.01,2929.81,3186.11,599.87,594.35,25.76,0000 0000 0000 0000 000000
2015-11-01 01:29:18,0.06,1.13,0.00,20.92,26.52,30.46,14.54,45.92,1006.85,2037.04,3146.76,2929.06,3185.62,599.84,594.31,25.81,0000 0000 0000 0000 000000
2015-11-01 01:34:19,0.04,1.13,0.00,20.93,26.52,30.41,14.50,46.02,1006.83,2037.14,3145.93,2928.46,3185.01,599.98,594.46,25.86,0000 0000 0000 0000 000000
2015-11-01 01:39:21,0.01,1.13,0.00,20.94,26.52,30.39,14.57,45.86,1006.84,2037.05,3145.31,2928.01,3184.41,599.59,593.97,25.91,0000 0000 0000 0000 000000
2015-11-01 01:44:22,0.04,1.13,0.00,20.94,26.54,30.43,14.65,46.04,1006.83,2037.03,3144.46,2927.47,3183.83,600.23,594.57,25.96,0000 0000 0000 0000 000000
2015-11-01 01:49:23,0.02,1.13,0.00,20.96,26.55,30.43,14.50,45.85,1006.79,2037.04,3143.74,2926.95,3183.04,600.03,594.40,26.01,0000 0000 0000 0000 000000
2015-11-01 01:54:25,0.05,1.14,0.00,20.98,26.55,30.36,14.59,46.30,1006.77,2037.02,3142.85,2926.19,3182.47,599.99,594.31,26.06,0000 0000 0000 0000 000000
2015-11-01 01:59:26,0.00,1.14,0.00,20.99,26.57,30.38,14.59,46.37,1006.79,2037.01,3142.61,2925.98,3181.99,600.07,594.32,26.11,0000 0000 0000 0000 000000
2015-11-01 02:04:27,0.05,1.14,0.00,21.00,26.57,30.39,14.50,46.19,1006.77,2037.00,3142.02,2925.24,3181.29,600.02,594.22,26.16,0000 0000 0000 0000 000000
2015-11-01 02:09:28,0.03,1.14,0.00,21.03,26.57,30.39,14.56,46.09,1006.71,2037.00,3141.26,2924.84,3180.80,599.84,594.10,26.21,0000 0000 0000 0000 000000
2015-11-01 02:14:29,0.04,1.14,0.00,21.04,26.57,30.41,14.59,46.32,1006.73,2037.00,3140.59,2924.08,3180.06,599.79,594.27,26.26,0000 0000 0000 0000 000000
2015-11-01 02:19:30,0.02,1.14,0.00,21.04,26.59,30.39,14.55,46.05,1006.61,2037.00,3139.86,2923.81,3179.69,600.08,594.16,26.31,0000 0000 0000 0000 000000
2015-11-01 02:24:31,0.04,1.15,0.00,21.07,26.60,30.46,14.62,46.38,1006.54,2037.00,3139.04,2923.06,3179.02,600.01,593.99,26.36,0000 0000 0000 0000 000000
2015-11-01 02:29:33,0.05,1.15,0.00,21.08,26.60,30.40,14.55,46.00,1006.49,2036.99,3138.24,2922.70,3178.42,600.43,594.36,26.41,0000 0000 0000 0000 000000
2015-11-01 02:34:34,0.03,1.15,0.00,21.09,26.60,30.43,14.62,45.99,1006.60,2036.99,3137.07,2922.00,3177.87,600.14,594.20,26.46,0000 0000 0000 0000 000000
2015-11-01 02:39:35,0.05,1.15,0.00,21.10,26.62,30.45,14.50,45.84,1006.41,2036.99,3136.12,2921.27,3177.07,599.63,593.50,26.51,0000 0000 0000 0000 000000
2015-11-01 02:44:37,0.03,1.16,0.00,21.12,26.62,30.42,14.58,45.67,1006.41,2036.99,3135.33,2920.93,3176.62,600.38,594.16,26.56,0000 0000 0000 0000 000000
2015-11-01 02:49:38,0.04,1.16,0.00,21.13,26.63,30.39,14.55,45.81,1006.38,2036.99,3134.81,2920.17,3176.02,599.94,593.71,26.61,0000 0000 0000 0000 000000
2015-11-01 02:54:40,0.03,1.16,0.00,21.20,26.65,30.22,14.59,45.88,1006.37,2036.99,3134.12,2919.89,3175.43,599.92,593.56,26.66,0000 0000 0000 0000 000000
2015-11-01 02:59:41,0.03,1.16,0.00,21.27,26.67,30.09,14.53,45.88,1006.37,2036.99,3133.67,2919.13,3174.90,600.18,593.67,26.71,0000 0000 0000 0000 000000
2015-11-01 03:04:42,0.27,1.17,0.00,21.31,26.70,30.06,14.49,45.86,1006.37,2036.97,3129.95,2916.33,3171.68,599.89,593.27,26.76,0000 0000 0000 0000 000000
2015-11-01 03:09:43,2.21,1.24,0.00,21.32,26.72,30.11,14.54,45.96,1006.37,2036.72,3096.38,2890.86,3145.28,600.47,593.85,26.81,0000 0000 0000 0000 000000
2015-11-01 03:14:44,5.79,1.45,0.00,21.34,26.75,30.15,14.40,45.85,1006.37,2036.08,3006.85,2823.16,3075.03,599.27,592.79,26.86,0000 0000 0000 0000 000000
2015-11-01 03:19:45,6.11,1.79,0.00,21.36,26.77,30.19,14.52,45.97,1006.37,2036.00,2894.77,2737.18,2985.85,599.91,593.22,26.91,0000 0000 0000 0000 000000
2015-11-01 03:24:47,2.07,1.97,0.00,21.40,26.79,30.20,14.49,46.33,1006.37,2035.95,2846.15,2699.31,2946.56,599.96,593.19,26.96,0000 0000 0000 0000 000000
2015-11-01 03:29:47,1.58,2.04,1.90,21.46,26.82,30.20,14.52,46.49,1006.36,2035.88,2821.88,2680.37,2926.87,600.08,593.25,27.01,0000 0000 0000 0000 000000
2015-11-01 03:34:49,3.47,2.18,3.00,21.52,26.84,30.24,14.40,46.14,1006.36,2035.33,2772.81,2640.43,2885.51,599.76,592.80,27.06,0000 0000 0000 0000 000000
2015-11-01 03:39:50,3.44,2.37,3.00,21.57,26.87,30.29,14.51,46.43,1006.36,2035.01,2717.06,2594.89,2838.31,599.93,592.88,27.11,0000 0000 0000 0000 000000
2015-11-01 03:44:51,0.60,2.44,3.00,21.60,26.90,30.39,14.48,46.63,1006.36,2035.00,2703.03,2583.57,2826.57,599.89,592.72,27.16,0000 0000 0000 0000 000000
2015-11-01 03:49:53,0.17,2.46,3.00,21.64,26.93,30.37,14.52,46.89,1006.36,2034.97,2699.46,2580.58,2823.42,599.85,592.59,27.21,0000 0000 0000 0000 000000
2015-11-01 03:54:54,0.02,2.46,3.00,21.67,26.96,30.39,14.59,46.70,1006.36,2034.62,2698.32,2579.54,2822.31,600.32,592.99,27.26,0000 0000 0000 0000 000000
2015-11-01 03:59:55,0.04,2.46,1.67,21.67,27.00,30.36,14.52,46.40,1006.36,2034.13,2696.99,2578.59,2821.16,600.09,592.75,27.31,0000 0000 0000 0000 000000
2015-11-01 04:04:57,0.08,2.47,1.00,21.67,27.02,30.38,14.57,46.52,1006.36,2034.02,2695.50,2577.55,2820.13,600.60,593.35,27.36,0000 0000 0000 0000 000000
2015-11-01 04:09:58,0.12,2.47,1.00,21.70,27.04,30.41,14.46,46.57,1006.36,2034.00,2693.58,2576.07,2818.59,600.13,592.68,27.41,0000 0000 0000 0000 000000
2015-11-01 04:15:00,0.11,2.48,1.00,21.72,27.07,30.39,14.52,46.40,1006.35,2034.00,2691.85,2574.69,2817.06,600.53,593.09,27.46,0000 0000 0000 0000 000000
2015-11-01 04:20:01,0.11,2.49,1.00,21.74,27.09,30.39,14.46,45.96,1006.24,2033.99,2689.93,2573.35,2815.71,600.12,592.54,27.51,0000 0000 0000 0000 000000
2015-11-01 04:25:02,0.10,2.49,1.00,21.76,27.11,30.43,14.53,46.27,1006.27,2033.99,2688.24,2572.00,2814.40,600.24,592.64,27.56,0000 0000 0000 0000 000000
2015-11-01 04:30:04,0.13,2.50,0.30,21.77,27.12,30.43,14.60,46.57,1006.29,2033.98,2686.38,2570.52,2812.75,600.37,592.95,27.61,0000 0000 0000 0000 000000
2015-11-01 04:35:05,0.12,2.50,0.00,21.77,27.15,30.45,14.52,46.31,1006.30,2033.95,2684.32,2568.91,2811.14,600.28,592.75,27.66,0000 0000 0000 0000 000000
2015-11-01 04:40:06,0.08,2.51,0.00,21.77,27.16,30.46,14.53,46.14,1006.18,2033.86,2682.90,2567.71,2809.78,600.27,592.64,27.71,0000 0000 0000 0000 000000
2015-11-01 04:45:07,0.03,2.51,0.00,21.79,27.17,30.49,14.54,46.08,1006.13,2033.39,2681.74,2566.64,2808.59,600.29,592.65,27.76,0000 0000 0000 0000 000000
2015-11-01 04:50:08,0.08,2.52,0.00,21.79,27.20,30.49,14.46,45.97,1006.03,2033.09,2680.31,2565.35,2807.28,599.97,592.21,27.81,0000 0000 0000 0000 000000
2015-11-01 04:55:10,0.07,2.52,0.00,21.81,27.21,30.57,14.59,45.98,1005.93,2033.01,2679.16,2564.42,2806.18,600.38,592.59,27.86,0000 0000 0000 0000 000000
2015-11-01 05:00:11,0.07,2.52,0.00,21.83,27.22,30.55,14.60,45.84,1005.90,2033.00,2678.06,2563.60,2805.29,600.60,592.69,27.91,0000 0000 0000 0000 000000
2015-11-01 05:05:12,0.06,2.53,0.00,21.84,27.24,30.55,14.49,45.92,1005.90,2033.00,2676.83,2562.84,2804.45,600.08,592.12,27.96,0000 0000 0000 0000 000000
2015-11-01 05:10:14,0.07,2.53,0.00,21.84,27.25,30.54,14.51,45.94,1005.89,2033.00,2675.56,2562.00,2803.63,600.02,591.99,28.01,0000 0000 0000 0000 000000
2015-11-01 05:15:15,0.06,2.53,0.00,21.84,27.26,30.57,14.52,45.86,1005.88,2033.00,2674.57,2561.15,2802.72,599.99,592.04,28.06,0000 0000 0000 0000 000000
2015-11-01 05:20:16,0.05,2.54,0.00,21.85,27.27,30.57,14.47,45.83,1005.87,2032.99,2673.74,2560.57,2801.94,600.01,592.20,28.11,0000 0000 0000 0000 000000
2015-11-01 05:25:17,0.06,2.54,0.00,21.85,27.28,30.59,14.42,45.85,1005.88,2032.99,2672.59,2559.86,2801.08,599.71,591.90,28.16,0000 0000 0000 0000 000000
2015-11-01 05:30:18,0.05,2.54,0.00,21.86,27.30,30.60,14.43,45.77,1005.87,2032.98,2672.00,2559.07,2800.65,599.80,591.79,28.21,0000 0000 0000 0000 000000
2015-11-01 05:35:20,0.02,2.54,0.00,21.86,27.30,30.62,14.50,45.81,1005.87,2032.98,2671.40,2558.97,2800.01,599.65,591.62,28.26,0000 0000 0000 0000 000000
2015-11-01 05:40:21,0.07,2.55,0.00,21.86,27.32,30.61,14.49,46.14,1005.87,2032.96,2670.61,2558.27,2799.39,600.02,592.04,28.31,0000 0000 0000 0000 000000
2015-11-01 05:45:22,0.01,2.55,0.00,21.85,27.32,30.64,14.49,46.08,1005.87,2032.94,2669.96,2557.90,2798.90,599.94,591.90,28.36,0000 0000 0000 0000 000000
2015-11-01 05:50:23,0.05,2.55,0.00,21.88,27.33,30.63,14.47,46.19,1005.87,2032.79,2669.06,2557.11,2798.09,600.03,591.94,28.41,0000 0000 0000 0000 000000
2015-11-01 05:55:25,0.08,2.55,0.00,21.89,27.35,30.62,14.50,46.08,1005.87,2032.85,2668.06,2556.47,2797.42,600.33,592.26,28.46,0000 0000 0000 0000 000000
2015-11-01 06:00:26,-0.04,2.55,0.00,21.89,27.35,30.64,14.48,45.90,1005.87,2032.51,2667.81,2556.03,2796.96,599.78,591.69,28.51,0000 0000 0000 0000 000000
2015-11-01 06:05:27,0.08,2.56,0.00,21.89,27.36,30.66,14.49,46.05,1005.87,2032.31,2666.62,2555.42,2796.20,600.16,592.06,28.56,0000 0000 0000 0000 000000
2015-11-01 06:10:28,0.08,2.56,0.00,21.89,27.37,30.64,14.49,46.07,1005.87,2032.29,2665.47,2554.37,2795.23,599.99,592.00,28.61,0000 0000 0000 0000 000000
2015-11-01 06:15:30,-0.01,2.56,0.00,21.91,27.37,30.67,14.51,45.95,1005.86,2032.14,2665.04,2554.00,2794.81,600.36,592.27,28.67,0000 0000 0000 0000 000000
2015-11-01 06:20:31,0.07,2.56,0.00,21.91,27.40,30.66,14.60,46.27,1005.85,2032.06,2664.17,2553.38,2794.05,600.26,592.16,28.72,0000 0000 0000 0000 000000
2015-11-01 06:25:33,0.06,2.57,0.00,21.91,27.40,30.66,14.48,46.11,1005.82,2032.14,2663.01,2552.86,2793.32,599.81,591.73,28.77,0000 0000 0000 0000 000000
2015-11-01 06:30:34,0.01,2.57,0.00,21.91,27.40,30.65,14.50,46.05,1005.85,2032.14,2662.94,2552.38,2793.00,599.94,591.57,28.82,0000 0000 0000 0000 000000
2015-11-01 06:35:35,0.03,2.57,0.00,21.90,27.41,30.68,14.46,46.25,1005.81,2032.04,2662.50,2552.01,2792.63,599.90,591.87,28.87,0000 0000 0000 0000 000000
2015-11-01 06:40:37,0.02,2.57,0.00,21.89,27.42,30.69,14.46,46.24,1005.82,2032.04,2661.94,2551.75,2792.03,599.77,591.64,28.92,0000 0000 0000 0000 000000
2015-11-01 06:45:38,0.06,2.57,0.00,21.88,27.42,30.69,14.52,46.67,1005.79,2032.04,2661.14,2551.05,2791.56,600.26,592.34,28.97,0000 0000 0000 0000 000000
2015-11-01 06:50:40,0.02,2.57,0.00,21.87,27.42,30.71,14.59,46.53,1005.74,2032.03,2660.64,2550.73,2791.00,600.01,591.89,29.02,0000 0000 0000 0000 000000
2015-11-01 06:55:41,0.04,2.58,0.00,21.86,27.42,30.71,14.50,46.53,1005.80,2032.00,2660.02,2550.03,2790.50,600.07,592.04,29.07,0000 0000 0000 0000 000000
2015-11-01 07:00:43,0.06,2.58,0.00,21.87,27.42,30.71,14.44,46.41,1005.68,2032.01,2658.90,2549.61,2789.99,599.66,591.54,29.12,0000 0000 0000 0000 000000
2015-11-01 07:05:44,0.03,2.58,0.00,21.87,27.42,30.71,14.47,46.17,1005.67,2032.02,2658.38,2549.02,2789.30,599.76,591.58,29.17,0000 0000 0000 0000 000000
2015-11-01 07:10:46,0.01,2.58,0.00,21.87,27.42,30.70,14.49,46.26,1005.58,2032.02,2658.20,2548.98,2789.01,600.02,591.75,29.22,0000 0000 0000 0000 000000
2015-11-01 07:15:47,0.07,2.59,0.00,21.89,27.42,30.70,14.45,46.15,1005.58,2032.03,2657.45,2548.23,2788.58,599.63,591.28,29.27,0000 0000 0000 0000 000000
2015-11-01 07:20:48,0.01,2.59,0.00,21.89,27.43,30.70,14.48,46.44,1005.62,2032.02,2657.01,2547.99,2788.01,600.01,591.88,29.32,0000 0000 0000 0000 000000
2015-11-01 07:25:49,0.05,2.59,0.00,21.89,27.44,30.70,14.46,46.40,1005.72,2032.00,2656.78,2547.40,2787.41,599.88,591.77,29.37,0000 0000 0000 0000 000000
2015-11-01 07:30:50,0.02,2.59,0.00,21.92,27.45,30.71,14.47,46.36,1005.73,2032.00,2656.08,2546.99,2787.00,600.16,592.01,29.42,0000 0000 0000 0000 000000
2015-11-01 07:35:52,0.04,2.59,0.00,21.91,27.45,30.71,14.52,46.52,1005.63,2032.00,2655.86,2546.60,2786.46,599.96,591.71,29.47,0000 0000 0000 0000 000000
2015-11-01 07:40:53,0.06,2.60,0.00,21.90,27.45,30.71,14.51,46.39,1005.65,2032.00,2654.59,2545.90,2785.84,600.34,592.19,29.52,0000 0000 0000 0000 000000
2015-11-01 07:45:55,0.05,2.60,0.00,21.89,27.45,30.71,14.51,46.50,1005.62,2032.00,2653.78,2545.13,2785.09,600.08,591.77,29.57,0000 0000 0000 0000 000000
2015-11-01 07:50:56,0.02,2.60,0.00,21.89,27.45,30.73,14.43,46.13,1005.59,2032.00,2653.03,2544.98,2784.90,600.01,591.61,29.62,0000 0000 0000 0000 000000
2015-11-01 07:55:57,0.07,2.60,0.00,21.89,27.45,30.72,14.51,46.32,1005.65,2032.00,2652.29,2544.31,2784.16,599.96,591.74,29.67,0000 0000 0000 0000 000000
2015-11-01 08:00:58,0.00,2.60,0.00,21.89,27.45,30.71,14.46,46.08,1005.68,2032.00,2651.97,2544.01,2783.97,600.22,591.85,29.72,0000 0000 0000 0000 000000
2015-11-01 08:05:59,0.04,2.61,0.00,21.89,27.45,30.69,14.48,46.23,1005.73,2032.00,2651.45,2543.79,2783.33,599.58,591.56,29.77,0000 0000 0000 0000 000000
2015-11-01 08:11:00,0.03,2.61,0.00,21.89,27.45,30.71,14.47,45.98,1005.80,2032.00,2651.03,2543.13,2782.99,599.62,591.47,29.82,0000 0000 0000 0000 000000
2015-11-01 08:16:02,0.03,2.61,0.00,21.87,27.45,30.70,14.49,46.27,1005.79,2032.00,2650.69,2542.92,2782.32,600.16,592.11,29.87,0000 0000 0000 0000 000000
2015-11-01 08:21:03,0.04,2.61,0.00,21.87,27.45,30.72,14.52,46.33,1005.76,2032.00,2650.03,2542.14,2781.98,599.99,591.96,29.92,0000 0000 0000 0000 000000
2015-11-01 08:26:04,0.04,2.61,0.00,21.87,27.45,30.72,14.61,46.35,1005.74,2032.00,2649.47,2541.97,2781.27,600.25,592.17,29.97,0000 0000 0000 0000 000000
2015-11-01 08:31:06,0.05,2.62,0.00,21.87,27.45,30.72,14.57,46.13,1005.79,2032.00,2648.61,2541.27,2780.97,600.56,592.58,30.02,0000 0000 0000 0000 000000
2015-11-01 08:36:07,0.02,2.62,0.00,21.85,27.45,30.75,14.50,45.96,1005.70,2032.00,2648.01,2540.99,2780.32,600.01,591.89,30.07,0000 0000 0000 0000 000000
2015-11-01 08:41:08,0.04,2.62,0.00,21.86,27.45,30.74,14.54,45.98,1005.62,2032.00,2647.46,2540.53,2780.00,599.92,591.73,30.12,0000 0000 0000 0000 000000
2015-11-01 08:46:10,0.02,2.62,0.00,21.87,27.45,30.74,14.45,46.14,1005.45,2032.00,2646.99,2540.01,2779.58,599.49,591.16,30.17,0000 0000 0000 0000 000000
2015-11-01 08:51:11,0.01,2.62,0.00,21.85,27.45,30.75,14.30,45.59,1005.47,2032.00,2646.65,2539.96,2779.03,599.36,591.11,30.22,0000 0000 0000 0000 000000
2015-11-01 08:56:12,0.04,2.62,0.00,21.80,27.45,30.77,14.47,45.77,1005.50,2032.00,2646.21,2539.45,2778.86,599.77,591.71,30.27,0000 0000 0000 0000 000000
2015-11-01 09:01:14,0.04,2.63,0.00,21.73,27.44,31.00,14.55,45.85,1005.48,2032.00,2645.54,2539.01,2778.09,600.11,592.15,30.32,0000 0000 0000 0000 000000
2015-11-01 09:06:16,0.02,2.63,0.00,21.65,27.42,31.15,14.50,45.63,1005.44,2032.00,2644.87,2538.72,2777.98,599.97,592.15,30.37,0000 0000 0000 0000 000000
2015-11-01 09:11:17,0.04,2.63,0.00,21.56,27.39,31.02,14.46,45.59,1005.47,2032.00,2644.11,2538.11,2777.55,599.96,592.33,30.42,0000 0000 0000 0000 000000
2015-11-01 09:16:18,0.01,2.63,0.00,21.48,27.35,30.95,14.58,45.56,1005.41,2032.05,2643.94,2538.00,2777.06,600.25,592.78,30.47,0000 0000 0000 0000 000000
2015-11-01 09:21:19,0.02,2.63,0.00,21.40,27.31,30.88,14.54,45.54,1005.39,2032.25,2643.62,2537.99,2777.00,600.14,592.75,30.52,0000 0000 0000 0000 000000
2015-11-01 09:26:21,0.08,2.64,0.00,21.33,27.26,30.77,14.51,45.54,1005.39,2032.80,2643.07,2537.96,2777.00,599.85,592.65,30.57,0000 0000 0000 0000 000000
2015-11-01 09:31:22,0.01,2.64,0.00,21.27,27.20,30.71,14.57,45.63,1005.39,2032.98,2643.00,2537.90,2776.98,600.11,593.03,30.62,0000 0000 0000 0000 000000
2015-11-01 09:36:23,0.03,2.64,0.00,21.20,27.15,30.66,14.48,45.55,1005.39,2032.99,2642.93,2537.58,2776.85,599.84,592.80,30.67,0000 0000 0000 0000 000000
2015-11-01 09:41:25,0.02,2.64,0.00,21.14,27.08,30.60,14.50,45.58,1005.39,2033.01,2642.71,2537.19,2776.54,600.00,593.17,30.72,0000 0000 0000 0000 000000
2015-11-01 09:46:26,0.01,2.64,0.00,21.09,27.02,30.53,14.57,45.74,1005.38,2033.10,2642.80,2537.12,2776.26,600.00,593.27,30.77,0000 0000 0000 0000 000000
2015-11-01 09:51:27,0.10,2.65,0.00,21.04,26.96,30.51,14.52,45.76,1005.31,2033.76,2642.17,2537.04,2776.08,599.81,593.11,30.82,0000 0000 0000 0000 000000
2015-11-01 09:56:28,0.02,2.65,0.00,21.01,26.89,30.44,14.52,45.71,1005.23,2033.98,2641.72,2537.01,2776.01,599.91,593.27,30.87,0000 0000 0000 0000 000000
2015-11-01 10:01:30,0.01,2.65,0.00,20.98,26.83,30.38,14.57,45.85,1005.19,2033.99,2641.24,2537.00,2776.00,600.06,593.44,30.92,0000 0000 0000 0000 000000
2015-11-01 10:06:31,0.06,2.65,0.00,20.95,26.76,30.29,14.62,45.92,1005.19,2034.37,2641.00,2537.00,2776.00,600.25,593.66,30.97,0000 0000 0000 0000 000000
2015-11-01 10:11:32,0.03,2.65,0.00,20.92,26.70,30.14,14.56,45.87,1005.05,2034.93,2640.98,2536.99,2776.00,600.10,593.46,31.02,0000 0000 0000 0000 000000
2015-11-01 10:16:34,0.03,2.65,0.00,20.89,26.64,30.11,14.59,45.72,1004.92,2034.99,2640.37,2536.94,2775.95,599.95,593.25,31.07,0000 0000 0000 0000 000000
2015-11-01 10:21:35,0.01,2.66,0.00,20.87,26.58,30.00,14.53,45.61,1004.93,2035.02,2640.02,2536.82,2775.92,599.99,593.44,31.12,0000 0000 0000 0000 000000
2015-11-01 10:26:36,0.03,2.66,0.00,20.85,26.53,29.95,14.51,45.77,1004.91,2035.22,2640.01,2536.72,2775.83,599.69,593.19,31.17,0000 0000 0000 0000 000000
2015-11-01 10:31:37,0.06,2.66,0.00,20.82,26.48,29.88,14.53,45.83,1004.91,2035.79,2640.02,2536.80,2775.85,599.80,593.38,31.22,0000 0000 0000 0000 000000
2015-11-01 10:36:38,0.05,2.66,0.00,20.81,26.42,29.92,14.57,45.81,1004.91,2035.98,2639.82,2536.32,2775.34,600.22,593.73,31.27,0000 0000 0000 0000 000000
2015-11-01 10:41:40,0.02,2.66,0.00,20.79,26.37,29.83,14.52,45.90,1004.90,2036.00,2639.05,2536.02,2775.01,599.82,593.49,31.32,0000 0000 0000 0000 000000
2015-11-01 10:46:42,0.00,2.66,0.00,20.77,26.32,29.78,14.54,45.99,1004.90,2036.02,2638.99,2536.00,2775.00,599.57,593.27,31.37,0000 0000 0000 0000 000000
2015-11-01 10:51:43,0.07,2.67,0.00,20.77,26.28,29.76,14.65,45.94,1004.90,2036.35,2638.41,2535.98,2774.98,600.45,594.09,31.42,0000 0000 0000 0000 000000
2015-11-01 10:56:44,0.04,2.67,0.00,20.74,26.23,29.72,14.53,45.87,1004.89,2036.91,2638.08,2535.98,2774.96,599.72,593.45,31.48,0000 0000 0000 0000 000000
2015-11-01 11:01:45,0.03,2.67,0.00,20.74,26.19,29.69,14.45,45.88,1004.81,2036.98,2638.00,2535.82,2774.42,600.07,593.71,31.53,0000 0000 0000 0000 000000
2015-11-01 11:06:47,0.03,2.67,0.00,20.72,26.15,29.65,14.53,45.90,1004.63,2036.99,2637.76,2535.23,2774.08,599.84,593.44,31.58,0000 0000 0000 0000 000000
2015-11-01 11:11:48,0.02,2.68,0.00,20.72,26.11,29.61,14.54,45.85,1004.51,2037.01,2637.04,2535.01,2774.00,600.03,593.52,31.63,0000 0000 0000 0000 000000
2015-11-01 11:16:49,0.03,2.68,0.00,20.71,26.07,29.59,14.61,45.85,1004.52,2037.22,2636.98,2535.00,2773.99,600.30,593.85,31.68,0000 0000 0000 0000 000000
2015-11-01 11:21:51,0.08,2.68,0.00,20.70,26.03,29.57,14.52,45.94,1004.59,2037.81,2636.30,2534.98,2773.94,599.92,593.52,31.73,0000 0000 0000 0000 000000
2015-11-01 11:26:52,0.04,2.68,0.00,20.69,26.00,29.54,14.53,45.82,1004.53,2037.98,2636.21,2534.79,2773.54,600.09,593.73,31.78,0000 0000 0000 0000 000000
2015-11-01 11:31:53,0.04,2.68,0.00,20.69,25.96,29.54,14.53,45.88,1004.43,2037.99,2635.59,2534.06,2773.02,599.84,593.20,31.83,0000 0000 0000 0000 000000
2015-11-01 11:36:55,0.01,2.68,0.00,20.69,25.93,29.52,14.52,45.84,1004.42,2037.99,2635.42,2534.05,2773.00,599.73,593.23,31.88,0000 0000 0000 0000 000000
2015-11-01 11:41:56,0.00,2.69,0.00,20.69,25.91,29.54,14.54,45.91,1004.42,2038.00,2634.99,2533.99,2772.96,600.26,593.77,31.93,0000 0000 0000 0000 000000
2015-11-01 11:46:57,0.04,2.69,0.00,20.67,25.88,29.51,14.53,45.89,1004.42,2038.06,2634.43,2533.90,2772.38,599.91,593.47,31.98,0000 0000 0000 0000 000000
2015-11-01 11:51:59,0.08,2.69,0.00,20.67,25.85,29.48,14.48,45.90,1004.41,2038.45,2634.01,2533.32,2772.01,599.62,593.16,32.03,0000 0000 0000 0000 000000
2015-11-01 11:57:00,0.04,2.69,0.00,20.67,25.82,29.46,14.53,45.88,1004.41,2038.91,2633.95,2533.05,2772.00,600.01,593.58,32.08,0000 0000 0000 0000 000000
2015-11-01 12:02:02,-0.01,2.69,0.00,20.67,25.80,29.42,14.48,45.88,1004.41,2038.97,2634.00,2533.06,2771.99,599.73,593.40,32.13,0000 0000 0000 0000 000000
2015-11-01 12:07:03,0.02,2.70,0.00,20.67,25.78,29.40,14.55,45.83,1004.41,2038.98,2633.62,2533.01,2771.87,600.33,593.83,32.18,0000 0000 0000 0000 000000
2015-11-01 12:12:04,0.01,2.70,0.00,20.67,25.76,29.41,14.59,45.96,1004.41,2038.99,2633.37,2532.99,2771.33,600.13,593.67,32.23,0000 0000 0000 0000 000000
2015-11-01 12:17:06,0.01,2.70,0.00,20.67,25.75,29.40,14.50,45.97,1004.40,2038.98,2633.22,2532.95,2771.03,599.79,593.47,32.28,0000 0000 0000 0000 000000
2015-11-01 12:22:07,0.02,2.70,0.00,20.67,25.72,29.41,14.54,45.92,1004.40,2038.99,2633.02,2532.58,2771.00,600.27,593.81,32.33,0000 0000 0000 0000 000000
2015-11-01 12:27:09,0.02,2.70,0.00,20.67,25.70,29.35,14.54,45.93,1004.40,2038.99,2632.70,2532.03,2770.89,600.01,593.34,32.38,0000 0000 0000 0000 000000
2015-11-01 12:32:10,0.03,2.70,0.00,20.67,25.68,29.35,14.56,45.94,1004.40,2038.99,2632.03,2531.98,2770.13,600.28,593.83,32.43,0000 0000 0000 0000 000000
2015-11-01 12:37:12,0.02,2.70,0.00,20.66,25.67,29.35,14.50,45.92,1004.36,2039.00,2631.76,2531.70,2770.00,599.93,593.49,32.48,0000 0000 0000 0000 000000
2015-11-01 12:42:13,0.05,2.70,0.00,20.65,25.65,29.34,14.54,46.17,1004.34,2039.03,2630.85,2531.05,2769.78,599.97,593.55,32.53,0000 0000 0000 0000 000000
2015-11-01 12:47:14,0.04,2.71,0.00,20.64,25.62,29.32,14.53,45.92,1004.31,2039.14,2630.18,2531.00,2769.12,599.72,593.23,32.58,0000 0000 0000 0000 000000
2015-11-01 12:52:16,0.02,2.71,0.00,20.64,25.61,29.32,14.56,45.98,1004.30,2039.28,2630.11,2530.95,2769.02,599.83,593.43,32.63,0000 0000 0000 0000 000000
2015-11-01 12:57:17,0.06,2.71,0.00,20.64,25.60,29.33,14.49,46.00,1004.12,2039.74,2629.99,2530.60,2769.00,600.21,593.64,32.68,0000 0000 0000 0000 000000